Port Huron, MI

1:14 PM EDT on March 25, 2017 (GMT -0400)
Saint Clair County International

Weather History for KPHN - July, 2013

Change the Weather History Date:

Friday, July 12, 2013

  Actual Average (KMTC) Record (KMTC)
Temperature  
Mean Temperature 65 °F -  
Max Temperature 77 °F 80 °F 95 °F (1954)
Min Temperature 53 °F 60 °F 47 °F (1978)
Growing Degree Days 15 (Base 50)    
Moisture  
Dew Point 60 °F    
Average Humidity 84    
Maximum Humidity 100    
Minimum Humidity 57    
Precipitation  
Precipitation 0.00 in - - ()
Sea Level Pressure  
Sea Level Pressure 30.14 in    
Wind  
Wind Speed 5 mph (North)    
Max Wind Speed 9 mph    
Max Gust Speed -    
Visibility 10 miles    
Events      
Averages and records for this station are not official NWS values.
T = Trace of Precipitation, MM = Missing Value Source: NWS Daily Summary

Daily Weather History Graph

Daily Weather History Graph

Search for Another Location

Airport or City:

Trip Planner

Search our weather history database for the weather conditions in past years. The results will help you decide how hot, cold, wet, or windy it might be!

Date:

Astronomy

Jul. 12, 2013 Rise Set
Actual Time 6:02 AM EDT 9:08 PM EDT
Civil Twilight 5:28 AM EDT 9:42 PM EDT
Nautical Twilight 4:44 AM EDT 10:26 PM EDT
Astronomical Twilight 3:51 AM EDT 11:18 PM EDT
Moon 10:25 AM EDT (7/12) 11:10 PM EDT (7/12)
Length of Visible Light 16h 14m
Length of Day
15h 05m
Waxing Crescent, 17% of the Moon is Illuminated
Jul 12
Waxing Crescent
Jul 15
First Quarter
Jul 22
Full
Jul 29
Last Quarter
Aug 6
New

Hourly Weather History & Observations

Time (EDT) Temp. Dew Point Humidity Pressure Visibility Wind Dir Wind Speed Gust Speed Precip Events Conditions
12:17 AM 55.4 °F 55.4 °F 100% 30.09 in 10.0 mi WNW 4.6 mph - N/A   Clear
12:37 AM 55.4 °F 55.4 °F 100% 30.09 in 10.0 mi NW 4.6 mph - N/A   Clear
12:57 AM 55.4 °F 55.4 °F 100% 30.09 in 10.0 mi NW 5.8 mph - N/A   Clear
1:17 AM 55.4 °F 55.4 °F 100% 30.09 in 10.0 mi NW 6.9 mph - N/A   Clear
1:37 AM 55.4 °F 55.4 °F 100% 30.10 in 10.0 mi WNW 5.8 mph - N/A   Clear
1:57 AM 55.4 °F 55.4 °F 100% 30.09 in 10.0 mi NW 4.6 mph - N/A   Clear
2:17 AM 55.4 °F 55.4 °F 100% 30.09 in 10.0 mi NW 5.8 mph - N/A   Clear
2:37 AM 55.4 °F 55.4 °F 100% 30.09 in 10.0 mi NW 4.6 mph - N/A   Clear
2:57 AM 55.4 °F 55.4 °F 100% 30.10 in 10.0 mi NW 3.5 mph - N/A   Clear
3:17 AM 53.6 °F 53.6 °F 100% 30.09 in 10.0 mi NW 4.6 mph - N/A   Clear
3:37 AM 53.6 °F 53.6 °F 100% 30.09 in 10.0 mi Calm Calm - N/A   Clear
3:57 AM 53.6 °F 53.6 °F 100% 30.09 in 10.0 mi NW 4.6 mph - N/A   Clear
4:17 AM 53.6 °F 53.6 °F 100% 30.09 in 10.0 mi NNW 3.5 mph - N/A   Clear
4:37 AM 53.6 °F 53.6 °F 100% 30.10 in 10.0 mi NW 3.5 mph - N/A   Clear
4:57 AM 53.6 °F 53.6 °F 100% 30.11 in 10.0 mi NW 3.5 mph - N/A   Clear
5:17 AM 53.6 °F 53.6 °F 100% 30.12 in 7.0 mi NW 4.6 mph - N/A   Clear
5:37 AM 53.6 °F 53.6 °F 100% 30.13 in 7.0 mi NW 5.8 mph - N/A   Clear
5:57 AM 53.6 °F 53.6 °F 100% 30.13 in 7.0 mi NW 4.6 mph - N/A   Clear
6:17 AM 53.6 °F 53.6 °F 100% 30.14 in 7.0 mi NW 6.9 mph - N/A   Clear
6:37 AM 53.6 °F 53.6 °F 100% 30.15 in 7.0 mi NW 6.9 mph - N/A   Clear
6:57 AM 55.4 °F 55.4 °F 100% 30.15 in 7.0 mi NW 3.5 mph - N/A   Clear
7:17 AM 55.4 °F 55.4 °F 100% 30.15 in 7.0 mi NW 4.6 mph - N/A   Clear
7:37 AM 57.2 °F 57.2 °F 100% 30.16 in 10.0 mi NW 3.5 mph - N/A   Clear
7:57 AM 59.0 °F 59.0 °F 100% 30.15 in 3.0 mi North 3.5 mph - N/A   Clear
8:17 AM 62.6 °F 60.8 °F 94% 30.15 in 10.0 mi North 3.5 mph - N/A   Clear
8:37 AM 64.4 °F 60.8 °F 88% 30.16 in 10.0 mi NNE 4.6 mph - N/A   Clear
8:57 AM 66.2 °F 62.6 °F 88% 30.16 in 10.0 mi NNE 3.5 mph - N/A   Clear
9:17 AM 68.0 °F 62.6 °F 83% 30.17 in 10.0 mi NNE 5.8 mph - N/A   Clear
9:37 AM 68.0 °F 62.6 °F 83% 30.17 in 10.0 mi NNE 4.6 mph - N/A   Clear
9:57 AM 68.0 °F 62.6 °F 83% 30.17 in 10.0 mi NNE 4.6 mph - N/A   Clear
10:17 AM 69.8 °F 62.6 °F 78% 30.18 in 10.0 mi North 5.8 mph - N/A   Clear
10:37 AM 69.8 °F 62.6 °F 78% 30.18 in 10.0 mi ENE 4.6 mph - N/A   Clear
10:57 AM 69.8 °F 62.6 °F 78% 30.17 in 10.0 mi NNE 6.9 mph - N/A   Clear
11:17 AM 71.6 °F 64.4 °F 78% 30.18 in 10.0 mi NE 5.8 mph - N/A   Clear
11:37 AM 71.6 °F 64.4 °F 78% 30.17 in 10.0 mi NE 4.6 mph - N/A   Clear
11:57 AM 71.6 °F 64.4 °F 78% 30.17 in 10.0 mi ENE 6.9 mph - N/A   Clear
12:17 PM 71.6 °F 64.4 °F 78% 30.17 in 10.0 mi NNE 8.1 mph - N/A   Clear
12:37 PM 73.4 °F 64.4 °F 73% 30.17 in 10.0 mi ENE 6.9 mph - N/A   Clear
12:57 PM 73.4 °F 62.6 °F 69% 30.16 in 10.0 mi NE 6.9 mph - N/A   Clear
1:17 PM 73.4 °F 62.6 °F 69% 30.16 in 10.0 mi ENE 8.1 mph - N/A   Clear
1:37 PM 75.2 °F 62.6 °F 65% 30.16 in 10.0 mi ENE 6.9 mph - N/A   Clear
1:57 PM 75.2 °F 62.6 °F 65% 30.16 in 10.0 mi NE 8.1 mph - N/A   Clear
2:17 PM 75.2 °F 62.6 °F 65% 30.15 in 10.0 mi ENE 4.6 mph - N/A   Clear
2:37 PM 75.2 °F 62.6 °F 65% 30.16 in 10.0 mi NNE 5.8 mph - N/A   Clear
2:57 PM 75.2 °F 62.6 °F 65% 30.16 in 10.0 mi NNE 8.1 mph - N/A   Clear
3:17 PM 75.2 °F 62.6 °F 65% 30.15 in 10.0 mi NE 8.1 mph - N/A   Clear
3:37 PM 75.2 °F 60.8 °F 61% 30.14 in 10.0 mi NNE 5.8 mph - N/A   Clear
3:57 PM 75.2 °F 62.6 °F 65% 30.14 in 10.0 mi North 4.6 mph - N/A   Clear
4:17 PM 77.0 °F 62.6 °F 61% 30.14 in 10.0 mi North 6.9 mph - N/A   Clear
4:37 PM 77.0 °F 60.8 °F 57% 30.15 in 10.0 mi NNE 6.9 mph - N/A   Clear
4:57 PM 77.0 °F 62.6 °F 61% 30.14 in 10.0 mi North 8.1 mph - N/A   Clear
5:17 PM 77.0 °F 60.8 °F 57% 30.14 in 10.0 mi North 5.8 mph - N/A   Clear
5:37 PM 77.0 °F 60.8 °F 57% 30.14 in 10.0 mi NNE 8.1 mph - N/A   Clear
5:57 PM 77.0 °F 60.8 °F 57% 30.14 in 10.0 mi NNE 8.1 mph - N/A   Clear
6:17 PM 77.0 °F 60.8 °F 57% 30.14 in 10.0 mi North 5.8 mph - N/A   Clear
6:37 PM 75.2 °F 60.8 °F 61% 30.14 in 10.0 mi North 9.2 mph - N/A   Clear
6:57 PM 75.2 °F 60.8 °F 61% 30.14 in 10.0 mi NNE 6.9 mph - N/A   Clear
7:17 PM 73.4 °F 60.8 °F 65% 30.14 in 10.0 mi NE 8.1 mph - N/A   Clear
7:37 PM 73.4 °F 60.8 °F 65% 30.15 in 10.0 mi NE 6.9 mph - N/A   Clear
7:57 PM 69.8 °F 62.6 °F 78% 30.15 in 10.0 mi NE 9.2 mph - N/A   Clear
8:17 PM 68.0 °F 62.6 °F 83% 30.15 in 10.0 mi NE 8.1 mph - N/A   Clear
8:37 PM 68.0 °F 62.6 °F 83% 30.16 in 10.0 mi NE 5.8 mph - N/A   Clear
8:57 PM 66.2 °F 62.6 °F 88% 30.16 in 10.0 mi NE 4.6 mph - N/A   Clear
9:17 PM 66.2 °F 62.6 °F 88% 30.15 in 10.0 mi ENE 3.5 mph - N/A   Clear
9:37 PM 64.4 °F 62.6 °F 94% 30.16 in 10.0 mi Calm Calm - N/A   Clear
9:57 PM 64.4 °F 60.8 °F 88% 30.17 in 10.0 mi Calm Calm - N/A   Clear
10:17 PM 62.6 °F 60.8 °F 94% 30.18 in 10.0 mi Calm Calm - N/A   Clear
10:37 PM 60.8 °F 60.8 °F 100% 30.17 in 10.0 mi Calm Calm - N/A   Clear
10:57 PM 60.8 °F 60.8 °F 100% 30.17 in 10.0 mi Calm Calm - N/A   Clear
11:17 PM 60.8 °F 60.8 °F 100% 30.17 in 10.0 mi Calm Calm - N/A   Clear
11:37 PM 60.8 °F 60.8 °F 100% 30.18 in 10.0 mi Calm Calm - N/A   Clear
11:57 PM 59.0 °F 59.0 °F 100% 30.17 in 10.0 mi Calm Calm - N/A   Clear